Time,TemperatureF,DewpointF,PressureIn,WindDirection,WindDirectionDegrees,WindSpeedMPH,WindSpeedGustMPH,Humidity,HourlyPrecipIn,Conditions,Clouds,dailyrainin,SoftwareType,DateUTC
2013-03-29 00:00:00,46.2,43.1,30.05,NE,53,0.0,0.0,89,0.00,,SKC,0.00,VWS V14.01,2013-03-29 07:00:00,
2013-03-29 00:05:00,46.4,43.3,30.05,NE,53,0.0,0.0,89,0.00,,SKC,0.00,VWS V14.01,2013-03-29 07:05:00,
2013-03-29 00:10:00,46.4,43.0,30.05,NE,53,0.0,0.0,88,0.00,,SKC,0.00,VWS V14.01,2013-03-29 07:10:00,
2013-03-29 00:16:00,46.2,42.8,30.05,NE,53,0.0,0.0,88,0.00,,SKC,0.00,VWS V14.01,2013-03-29 07:16:00,
2013-03-29 00:21:00,46.1,42.8,30.05,NE,53,0.0,0.0,88,0.00,,SKC,0.00,VWS V14.01,2013-03-29 07:21:00,
2013-03-29 00:27:00,46.0,43.0,30.05,NE,53,0.0,0.0,89,0.00,,SKC,0.00,VWS V14.01,2013-03-29 07:27:00,
2013-03-29 00:30:00,46.0,43.0,30.05,NE,53,1.0,2.0,89,0.00,,SKC,0.00,VWS V14.01,2013-03-29 07:30:00,
2013-03-29 00:32:00,46.0,43.0,30.05,NE,53,0.0,1.0,89,0.00,,SKC,0.00,VWS V14.01,2013-03-29 07:32:00,
2013-03-29 00:37:00,46.1,43.0,30.05,NE,53,0.0,1.0,89,0.00,,SKC,0.00,VWS V14.01,2013-03-29 07:37:00,
2013-03-29 00:42:00,46.4,43.3,30.05,NE,53,0.0,1.0,89,0.00,,SKC,0.00,VWS V14.01,2013-03-29 07:42:00,
2013-03-29 00:47:00,46.4,43.0,30.05,NE,53,0.0,1.0,88,0.00,,SKC,0.00,VWS V14.01,2013-03-29 07:47:00,
2013-03-29 00:52:00,46.4,43.0,30.05,NE,53,0.0,1.0,88,0.00,,SKC,0.00,VWS V14.01,2013-03-29 07:52:00,
2013-03-29 00:58:00,46.4,43.0,30.05,NE,53,0.0,1.0,88,0.00,,SKC,0.00,VWS V14.01,2013-03-29 07:58:00,
2013-03-29 01:00:00,46.4,43.0,30.05,NE,53,0.0,1.0,88,0.00,,SKC,0.00,VWS V14.01,2013-03-29 08:00:00,
2013-03-29 01:03:00,46.4,43.0,30.05,NE,53,0.0,0.0,88,0.00,,SKC,0.00,VWS V14.01,2013-03-29 08:03:00,
2013-03-29 01:08:00,46.4,42.8,30.05,NE,53,0.0,0.0,87,0.00,,SKC,0.00,VWS V14.01,2013-03-29 08:08:00,
2013-03-29 01:13:00,46.4,42.8,30.05,NE,53,0.0,0.0,87,0.00,,SKC,0.00,VWS V14.01,2013-03-29 08:13:00,
2013-03-29 01:18:00,46.4,42.8,30.05,NE,53,0.0,0.0,87,0.00,,SKC,0.00,VWS V14.01,2013-03-29 08:18:00,
2013-03-29 01:23:00,46.2,42.5,30.05,NE,53,0.0,0.0,87,0.00,,SKC,0.00,VWS V14.01,2013-03-29 08:23:00,
2013-03-29 01:28:00,46.2,42.5,30.05,NE,53,0.0,0.0,87,0.00,,SKC,0.00,VWS V14.01,2013-03-29 08:28:00,
2013-03-29 01:30:00,46.2,42.5,30.05,NE,53,0.0,0.0,87,0.00,,SKC,0.00,VWS V14.01,2013-03-29 08:30:00,
2013-03-29 01:33:00,46.1,42.5,30.05,NE,53,0.0,0.0,87,0.00,,SKC,0.00,VWS V14.01,2013-03-29 08:33:00,
2013-03-29 01:38:00,46.1,42.5,30.05,NE,53,0.0,0.0,87,0.00,,SKC,0.00,VWS V14.01,2013-03-29 08:38:00,
2013-03-29 01:43:00,46.2,42.5,30.05,NE,53,0.0,0.0,87,0.00,,SKC,0.00,VWS V14.01,2013-03-29 08:43:00,
2013-03-29 01:48:00,46.2,42.2,30.05,NE,53,0.0,0.0,86,0.00,,SKC,0.00,VWS V14.01,2013-03-29 08:48:00,
2013-03-29 01:53:00,46.2,42.2,30.05,NE,53,0.0,0.0,86,0.00,,SKC,0.00,VWS V14.01,2013-03-29 08:53:00,
2013-03-29 01:59:00,46.2,42.2,30.05,NE,53,0.0,0.0,86,0.00,,SKC,0.00,VWS V14.01,2013-03-29 08:59:00,
2013-03-29 02:00:00,46.2,42.2,30.05,NE,53,0.0,0.0,86,0.00,,SKC,0.00,VWS V14.01,2013-03-29 09:00:00,
2013-03-29 02:04:00,46.2,42.2,30.05,NE,53,0.0,0.0,86,0.00,,SKC,0.00,VWS V14.01,2013-03-29 09:04:00,
2013-03-29 02:09:00,46.1,42.2,30.05,NE,53,0.0,0.0,86,0.00,,SKC,0.00,VWS V14.01,2013-03-29 09:09:00,
2013-03-29 02:14:00,46.0,42.0,30.06,NE,53,0.0,0.0,86,0.00,,SKC,0.00,VWS V14.01,2013-03-29 09:14:00,
2013-03-29 02:19:00,46.0,42.0,30.06,NE,53,0.0,0.0,86,0.00,,SKC,0.00,VWS V14.01,2013-03-29 09:19:00,
2013-03-29 02:24:00,46.0,42.0,30.06,NE,53,0.0,0.0,86,0.00,,SKC,0.00,VWS V14.01,2013-03-29 09:24:00,
2013-03-29 02:29:00,46.0,41.8,30.06,NE,53,0.0,0.0,85,0.00,,SKC,0.00,VWS V14.01,2013-03-29 09:29:00,
2013-03-29 02:30:00,46.1,41.8,30.06,NE,53,0.0,0.0,85,0.00,,SKC,0.00,VWS V14.01,2013-03-29 09:30:00,
2013-03-29 02:34:00,46.0,41.8,30.06,NE,53,0.0,0.0,85,0.00,,SKC,0.00,VWS V14.01,2013-03-29 09:34:00,
2013-03-29 02:39:00,46.0,41.8,30.06,NE,53,0.0,0.0,85,0.00,,SKC,0.00,VWS V14.01,2013-03-29 09:39:00,
2013-03-29 02:45:00,46.1,41.8,30.05,NE,53,0.0,0.0,85,0.00,,SKC,0.00,VWS V14.01,2013-03-29 09:45:00,
2013-03-29 02:50:00,46.2,42.0,30.05,NE,53,0.0,0.0,85,0.00,,SKC,0.00,VWS V14.01,2013-03-29 09:50:00,
2013-03-29 02:55:00,46.2,41.6,30.05,NE,53,0.0,0.0,84,0.00,,SKC,0.00,VWS V14.01,2013-03-29 09:55:00,
2013-03-29 03:00:00,46.2,41.6,30.05,NE,53,0.0,0.0,84,0.00,,SKC,0.00,VWS V14.01,2013-03-29 10:00:00,
2013-03-29 03:05:00,46.1,41.5,30.05,NE,53,0.0,0.0,84,0.00,,SKC,0.00,VWS V14.01,2013-03-29 10:05:00,
2013-03-29 03:10:00,46.0,41.4,30.05,NE,53,0.0,0.0,84,0.00,,SKC,0.00,VWS V14.01,2013-03-29 10:10:00,
2013-03-29 03:15:00,45.7,41.2,30.05,NE,53,0.0,0.0,84,0.00,,SKC,0.00,VWS V14.01,2013-03-29 10:15:00,
2013-03-29 03:20:00,45.5,41.3,30.05,NE,53,0.0,0.0,85,0.00,,SKC,0.00,VWS V14.01,2013-03-29 10:20:00,
2013-03-29 03:25:00,45.4,41.2,30.05,NE,53,0.0,0.0,85,0.00,,SKC,0.00,VWS V14.01,2013-03-29 10:25:00,
2013-03-29 03:30:00,45.4,41.2,30.05,NE,53,0.0,0.0,85,0.00,,SKC,0.00,VWS V14.01,2013-03-29 10:30:00,
2013-03-29 03:36:00,45.2,41.0,30.05,NE,53,0.0,0.0,85,0.00,,SKC,0.00,VWS V14.01,2013-03-29 10:36:00,
2013-03-29 03:41:00,45.2,41.3,30.05,NE,53,0.0,0.0,86,0.00,,SKC,0.00,VWS V14.01,2013-03-29 10:41:00,
2013-03-29 03:46:00,45.2,41.3,30.05,NE,53,0.0,0.0,86,0.00,,SKC,0.00,VWS V14.01,2013-03-29 10:46:00,
2013-03-29 03:51:00,45.1,41.2,30.05,NE,53,0.0,0.0,86,0.00,,SKC,0.00,VWS V14.01,2013-03-29 10:51:00,
2013-03-29 03:56:00,44.9,41.0,30.05,NE,53,0.0,0.0,86,0.00,,SKC,0.00,VWS V14.01,2013-03-29 10:56:00,
2013-03-29 04:00:00,44.8,40.9,30.05,NE,53,0.0,0.0,86,0.00,,SKC,0.00,VWS V14.01,2013-03-29 11:00:00,
2013-03-29 04:01:00,44.6,40.7,30.05,NE,53,0.0,0.0,86,0.00,,SKC,0.00,VWS V14.01,2013-03-29 11:01:00,
2013-03-29 04:06:00,44.3,40.7,30.05,NE,53,0.0,0.0,87,0.00,,SKC,0.00,VWS V14.01,2013-03-29 11:06:00,
2013-03-29 04:11:00,44.1,40.5,30.05,NE,53,0.0,0.0,87,0.00,,SKC,0.00,VWS V14.01,2013-03-29 11:11:00,
2013-03-29 04:16:00,44.1,40.8,30.04,NE,53,0.0,0.0,88,0.00,,SKC,0.00,VWS V14.01,2013-03-29 11:16:00,
2013-03-29 04:21:00,44.1,40.8,30.04,NE,53,0.0,0.0,88,0.00,,SKC,0.00,VWS V14.01,2013-03-29 11:21:00,
2013-03-29 04:27:00,44.1,40.8,30.04,NE,53,0.0,0.0,88,0.00,,SKC,0.00,VWS V14.01,2013-03-29 11:27:00,
2013-03-29 04:30:00,44.2,40.9,30.04,NE,53,0.0,0.0,88,0.00,,SKC,0.00,VWS V14.01,2013-03-29 11:30:00,
2013-03-29 04:32:00,44.2,40.9,30.04,NE,53,0.0,0.0,88,0.00,,SKC,0.00,VWS V14.01,2013-03-29 11:32:00,
2013-03-29 04:37:00,44.2,40.6,30.04,NE,53,0.0,0.0,87,0.00,,SKC,0.00,VWS V14.01,2013-03-29 11:37:00,
2013-03-29 04:42:00,44.1,40.5,30.04,NE,53,0.0,1.0,87,0.00,,SKC,0.00,VWS V14.01,2013-03-29 11:42:00,
2013-03-29 04:47:00,44.1,40.5,30.04,NE,53,0.0,1.0,87,0.00,,SKC,0.00,VWS V14.01,2013-03-29 11:47:00,
2013-03-29 04:52:00,44.3,40.4,30.04,NE,53,0.0,1.0,86,0.00,,SKC,0.00,VWS V14.01,2013-03-29 11:52:00,
2013-03-29 04:57:00,44.3,40.4,30.04,NE,53,0.0,1.0,86,0.00,,SKC,0.00,VWS V14.01,2013-03-29 11:57:00,
2013-03-29 05:00:00,44.3,40.1,30.04,NE,53,0.0,1.0,85,0.00,,SKC,0.00,VWS V14.01,2013-03-29 12:00:00,
2013-03-29 05:02:00,44.2,40.0,30.04,NE,53,0.0,0.0,85,0.00,,SKC,0.00,VWS V14.01,2013-03-29 12:02:00,
2013-03-29 05:07:00,44.2,40.0,30.04,NE,53,0.0,0.0,85,0.00,,SKC,0.00,VWS V14.01,2013-03-29 12:07:00,
2013-03-29 05:12:00,44.2,40.0,30.04,NE,53,0.0,0.0,85,0.00,,SKC,0.00,VWS V14.01,2013-03-29 12:12:00,
2013-03-29 05:17:00,44.2,40.0,30.04,NE,53,0.0,0.0,85,0.00,,SKC,0.00,VWS V14.01,2013-03-29 12:17:00,
2013-03-29 05:22:00,44.2,40.0,30.04,NE,53,0.0,0.0,85,0.00,,SKC,0.00,VWS V14.01,2013-03-29 12:22:00,
2013-03-29 05:28:00,44.2,39.7,30.04,NE,53,0.0,0.0,84,0.00,,SKC,0.00,VWS V14.01,2013-03-29 12:28:00,
2013-03-29 05:30:00,44.2,39.7,30.04,NE,53,0.0,1.0,84,0.00,,SKC,0.00,VWS V14.01,2013-03-29 12:30:00,
2013-03-29 05:33:00,44.2,39.7,30.04,NE,53,0.0,0.0,84,0.00,,SKC,0.00,VWS V14.01,2013-03-29 12:33:00,
2013-03-29 05:38:00,44.2,39.7,30.04,NE,53,0.0,0.0,84,0.00,,SKC,0.00,VWS V14.01,2013-03-29 12:38:00,
2013-03-29 05:43:00,44.1,39.6,30.04,NE,53,0.0,0.0,84,0.00,,SKC,0.00,VWS V14.01,2013-03-29 12:43:00,
2013-03-29 05:48:00,43.9,39.4,30.04,NE,53,0.0,0.0,84,0.00,,SKC,0.00,VWS V14.01,2013-03-29 12:48:00,
2013-03-29 05:53:00,43.9,39.4,30.04,NE,53,0.0,0.0,84,0.00,,SKC,0.00,VWS V14.01,2013-03-29 12:53:00,
2013-03-29 05:58:00,43.9,39.1,30.04,NE,53,0.0,0.0,83,0.00,,SKC,0.00,VWS V14.01,2013-03-29 12:58:00,
2013-03-29 06:00:00,43.9,39.1,30.04,NE,53,0.0,0.0,83,0.00,,SKC,0.00,VWS V14.01,2013-03-29 13:00:00,
2013-03-29 06:03:00,43.9,39.1,30.04,NE,53,0.0,1.0,83,0.00,,SKC,0.00,VWS V14.01,2013-03-29 13:03:00,
2013-03-29 06:08:00,44.1,39.0,30.04,NE,53,0.0,1.0,82,0.00,,SKC,0.00,VWS V14.01,2013-03-29 13:08:00,
2013-03-29 06:14:00,44.3,38.8,30.05,NE,53,0.0,1.0,81,0.00,,SKC,0.00,VWS V14.01,2013-03-29 13:14:00,
2013-03-29 06:19:00,44.6,38.8,30.05,NE,53,0.0,1.0,80,0.00,,SKC,0.00,VWS V14.01,2013-03-29 13:19:00,
2013-03-29 06:24:00,44.8,38.7,30.05,NE,53,0.0,1.0,79,0.00,,SKC,0.00,VWS V14.01,2013-03-29 13:24:00,
2013-03-29 06:29:00,44.9,38.5,30.04,NE,53,0.0,1.0,78,0.00,,SKC,0.00,VWS V14.01,2013-03-29 13:29:00,
2013-03-29 06:30:00,44.9,38.5,30.04,NE,53,0.0,1.0,78,0.00,,SKC,0.00,VWS V14.01,2013-03-29 13:30:00,
2013-03-29 06:34:00,45.1,38.7,30.04,NE,53,0.0,1.0,78,0.00,,SKC,0.00,VWS V14.01,2013-03-29 13:34:00,
2013-03-29 06:39:00,45.1,38.3,30.04,NE,53,0.0,1.0,77,0.00,,SKC,0.00,VWS V14.01,2013-03-29 13:39:00,
2013-03-29 06:44:00,45.1,38.3,30.05,NE,53,0.0,1.0,77,0.00,,SKC,0.00,VWS V14.01,2013-03-29 13:44:00,
2013-03-29 06:49:00,45.2,38.1,30.05,NE,53,0.0,1.0,76,0.00,,SKC,0.00,VWS V14.01,2013-03-29 13:49:00,
2013-03-29 06:54:00,45.2,38.1,30.05,NE,53,0.0,1.0,76,0.00,,SKC,0.00,VWS V14.01,2013-03-29 13:54:00,
2013-03-29 06:59:00,45.2,38.1,30.05,NE,53,0.0,1.0,76,0.00,,SKC,0.00,VWS V14.01,2013-03-29 13:59:00,
2013-03-29 07:00:00,45.2,38.1,30.05,NE,53,0.0,1.0,76,0.00,,SKC,0.00,VWS V14.01,2013-03-29 14:00:00,
2013-03-29 07:05:00,45.1,38.3,30.05,NE,53,0.0,0.0,77,0.00,,SKC,0.00,VWS V14.01,2013-03-29 14:05:00,
2013-03-29 07:10:00,44.6,38.2,30.05,NE,53,0.0,0.0,78,0.00,,SKC,0.00,VWS V14.01,2013-03-29 14:10:00,
2013-03-29 07:15:00,44.3,38.2,30.06,NE,53,0.0,0.0,79,0.00,,SKC,0.00,VWS V14.01,2013-03-29 14:15:00,
2013-03-29 07:20:00,44.2,38.1,30.06,NE,53,0.0,0.0,79,0.00,,SKC,0.00,VWS V14.01,2013-03-29 14:20:00,
2013-03-29 07:25:00,44.1,38.3,30.06,NE,53,0.0,0.0,80,0.00,,SKC,0.00,VWS V14.01,2013-03-29 14:25:00,
2013-03-29 07:30:00,44.2,38.4,30.07,NE,53,0.0,0.0,80,0.00,,SKC,0.00,VWS V14.01,2013-03-29 14:30:00,
2013-03-29 07:35:00,44.6,38.2,30.07,NE,53,0.0,0.0,78,0.00,,SKC,0.00,VWS V14.01,2013-03-29 14:35:00,
2013-03-29 07:40:00,45.1,38.3,30.07,NE,53,0.0,2.0,77,0.00,,SKC,0.00,VWS V14.01,2013-03-29 14:40:00,
2013-03-29 07:45:00,45.7,38.2,30.06,NE,53,0.0,2.0,75,0.00,,SKC,0.00,VWS V14.01,2013-03-29 14:45:00,
2013-03-29 07:50:00,46.2,38.4,30.06,NE,53,0.0,2.0,74,0.00,,SKC,0.00,VWS V14.01,2013-03-29 14:50:00,
2013-03-29 07:56:00,46.7,38.5,30.06,NE,53,0.0,2.0,73,0.00,,SKC,0.00,VWS V14.01,2013-03-29 14:56:00,
2013-03-29 08:00:00,47.1,38.5,30.06,NE,53,0.0,2.0,72,0.00,,SKC,0.00,VWS V14.01,2013-03-29 15:00:00,
2013-03-29 08:01:00,47.3,38.7,30.06,NE,53,0.0,0.0,72,0.00,,SKC,0.00,VWS V14.01,2013-03-29 15:01:00,
2013-03-29 08:06:00,47.7,38.8,30.06,NE,53,0.0,0.0,71,0.00,,SKC,0.00,VWS V14.01,2013-03-29 15:06:00,
2013-03-29 08:11:00,48.3,39.3,30.06,NE,53,0.0,0.0,71,0.00,,SKC,0.00,VWS V14.01,2013-03-29 15:11:00,
2013-03-29 08:17:00,49.2,39.5,30.06,NE,53,0.0,1.0,69,0.00,,SKC,0.00,VWS V14.01,2013-03-29 15:17:00,
2013-03-29 08:22:00,49.9,39.4,30.06,NE,53,0.0,1.0,67,0.00,,SKC,0.00,VWS V14.01,2013-03-29 15:22:00,
2013-03-29 08:27:00,50.8,39.5,30.06,NE,53,0.0,1.0,65,0.00,,SKC,0.00,VWS V14.01,2013-03-29 15:27:00,
2013-03-29 08:30:00,51.1,39.4,30.06,NE,53,0.0,1.0,64,0.00,,SKC,0.00,VWS V14.01,2013-03-29 15:30:00,
2013-03-29 08:32:00,51.6,39.8,30.06,NE,53,0.0,1.0,64,0.00,,SKC,0.00,VWS V14.01,2013-03-29 15:32:00,
2013-03-29 08:37:00,52.2,39.6,30.06,NE,53,0.0,2.0,62,0.00,,SKC,0.00,VWS V14.01,2013-03-29 15:37:00,
2013-03-29 08:42:00,52.9,41.1,30.06,NE,53,0.0,2.0,64,0.00,,SKC,0.00,VWS V14.01,2013-03-29 15:42:00,
2013-03-29 08:48:00,53.6,40.1,30.05,NE,53,0.0,2.0,60,0.00,,SKC,0.00,VWS V14.01,2013-03-29 15:48:00,
2013-03-29 08:53:00,54.2,41.1,30.05,NE,53,0.0,2.0,61,0.00,,SKC,0.00,VWS V14.01,2013-03-29 15:53:00,
2013-03-29 08:58:00,54.7,41.1,30.05,NE,53,0.0,2.0,60,0.00,,SKC,0.00,VWS V14.01,2013-03-29 15:58:00,
2013-03-29 09:00:00,54.8,41.2,30.05,NE,53,0.0,2.0,60,0.00,,SKC,0.00,VWS V14.01,2013-03-29 16:00:00,
2013-03-29 09:03:00,55.3,41.7,30.05,NE,53,0.0,1.0,60,0.00,,SKC,0.00,VWS V14.01,2013-03-29 16:03:00,
2013-03-29 09:08:00,55.7,41.6,30.05,NE,53,0.0,1.0,59,0.00,,SKC,0.00,VWS V14.01,2013-03-29 16:08:00,
2013-03-29 09:13:00,56.2,41.2,30.05,NE,53,1.0,1.0,57,0.00,,SKC,0.00,VWS V14.01,2013-03-29 16:13:00,
2013-03-29 09:18:00,56.7,42.5,30.05,NE,53,0.0,1.0,59,0.00,,SKC,0.00,VWS V14.01,2013-03-29 16:18:00,
2013-03-29 09:24:00,57.3,43.1,30.05,NE,53,0.0,1.0,59,0.00,,SKC,0.00,VWS V14.01,2013-03-29 16:24:00,
2013-03-29 09:29:00,58.1,43.9,30.05,NE,53,0.0,1.0,59,0.00,,SKC,0.00,VWS V14.01,2013-03-29 16:29:00,
2013-03-29 09:30:00,58.3,44.0,30.05,NE,53,0.0,1.0,59,0.00,,SKC,0.00,VWS V14.01,2013-03-29 16:30:00,
2013-03-29 09:34:00,58.7,44.0,30.05,NE,53,0.0,0.0,58,0.00,,SKC,0.00,VWS V14.01,2013-03-29 16:34:00,
2013-03-29 09:39:00,59.5,43.3,30.05,NE,53,0.0,1.0,55,0.00,,SKC,0.00,VWS V14.01,2013-03-29 16:39:00,
2013-03-29 09:44:00,60.9,42.7,30.04,NE,53,0.0,1.0,51,0.00,,SKC,0.00,VWS V14.01,2013-03-29 16:44:00,
2013-03-29 09:50:00,62.0,44.7,30.04,NE,53,0.0,1.0,53,0.00,,SKC,0.00,VWS V14.01,2013-03-29 16:50:00,
2013-03-29 09:55:00,62.0,45.7,30.04,NE,53,0.0,1.0,55,0.00,,SKC,0.00,VWS V14.01,2013-03-29 16:55:00,
2013-03-29 10:00:00,62.4,45.5,30.04,NE,53,0.0,0.0,54,0.00,,SKC,0.00,VWS V14.01,2013-03-29 17:00:00,
2013-03-29 10:05:00,63.4,46.0,30.04,NE,53,0.0,1.0,53,0.00,,SKC,0.00,VWS V14.01,2013-03-29 17:05:00,
2013-03-29 10:10:00,64.7,44.6,30.04,NE,53,0.0,1.0,48,0.00,,SKC,0.00,VWS V14.01,2013-03-29 17:10:00,
2013-03-29 10:15:00,65.6,41.9,30.03,NE,53,0.0,1.0,42,0.00,,SKC,0.00,VWS V14.01,2013-03-29 17:15:00,
2013-03-29 10:20:00,66.0,41.7,30.03,SE,132,0.0,2.0,41,0.00,,SKC,0.00,VWS V14.01,2013-03-29 17:20:00,
2013-03-29 10:25:00,66.3,40.6,30.03,SE,132,0.0,2.0,39,0.00,,SKC,0.00,VWS V14.01,2013-03-29 17:25:00,
2013-03-29 10:30:00,66.4,40.7,30.03,SE,132,0.0,0.0,39,0.00,,SKC,0.00,VWS V14.01,2013-03-29 17:30:00,
2013-03-29 10:36:00,66.9,41.2,30.03,SE,132,0.0,1.0,39,0.00,,SKC,0.00,VWS V14.01,2013-03-29 17:36:00,
2013-03-29 10:41:00,67.1,42.0,30.03,SE,131,0.0,1.0,40,0.00,,SKC,0.00,VWS V14.01,2013-03-29 17:41:00,
2013-03-29 10:46:00,67.8,41.3,30.03,SE,130,0.0,1.0,38,0.00,,SKC,0.00,VWS V14.01,2013-03-29 17:46:00,
2013-03-29 10:52:00,68.6,42.0,30.03,SE,130,0.0,1.0,38,0.00,,SKC,0.00,VWS V14.01,2013-03-29 17:52:00,
2013-03-29 10:57:00,67.8,39.2,30.03,SSW,212,0.0,2.0,35,0.00,,SKC,0.00,VWS V14.01,2013-03-29 17:57:00,
2013-03-29 11:00:00,67.8,39.9,30.03,SSW,212,0.0,2.0,36,0.00,,SKC,0.00,VWS V14.01,2013-03-29 18:00:00,
2013-03-29 11:02:00,67.9,39.3,30.03,SSW,209,0.0,1.0,35,0.00,,SKC,0.00,VWS V14.01,2013-03-29 18:02:00,
2013-03-29 11:07:00,67.8,38.4,30.03,SSW,209,0.0,1.0,34,0.00,,SKC,0.00,VWS V14.01,2013-03-29 18:07:00,
2013-03-29 11:13:00,68.1,39.4,30.03,South,180,0.0,1.0,35,0.00,,SKC,0.00,VWS V14.01,2013-03-29 18:13:00,
2013-03-29 11:18:00,69.1,40.3,30.03,SE,142,0.0,3.0,35,0.00,,SKC,0.00,VWS V14.01,2013-03-29 18:18:00,
2013-03-29 11:23:00,68.9,38.6,30.03,SSW,194,0.0,3.0,33,0.00,,SKC,0.00,VWS V14.01,2013-03-29 18:23:00,
2013-03-29 11:28:00,68.6,38.4,30.03,SSW,210,0.0,3.0,33,0.00,,SKC,0.00,VWS V14.01,2013-03-29 18:28:00,
2013-03-29 11:30:00,68.6,39.9,30.03,SW,223,0.0,3.0,35,0.00,,SKC,0.00,VWS V14.01,2013-03-29 18:30:00,
2013-03-29 11:33:00,68.4,38.2,30.03,WSW,239,0.0,1.0,33,0.00,,SKC,0.00,VWS V14.01,2013-03-29 18:33:00,
2013-03-29 11:38:00,68.3,38.1,30.03,SW,227,0.0,2.0,33,0.00,,SKC,0.00,VWS V14.01,2013-03-29 18:38:00,
2013-03-29 11:44:00,68.3,40.3,30.03,WSW,244,0.0,4.0,36,0.00,,SKC,0.00,VWS V14.01,2013-03-29 18:44:00,
2013-03-29 11:49:00,68.3,39.6,30.03,South,188,0.0,4.0,35,0.00,,SKC,0.00,VWS V14.01,2013-03-29 18:49:00,
2013-03-29 11:54:00,68.4,39.7,30.03,SW,227,0.0,4.0,35,0.00,,SKC,0.00,VWS V14.01,2013-03-29 18:54:00,
2013-03-29 11:59:00,69.1,40.3,30.03,SSW,196,0.0,4.0,35,0.00,,SKC,0.00,VWS V14.01,2013-03-29 18:59:00,
2013-03-29 12:00:00,69.1,40.3,30.03,SSW,196,0.0,4.0,35,0.00,,SKC,0.00,VWS V14.01,2013-03-29 19:00:00,
2013-03-29 12:04:00,69.8,40.2,30.03,SSW,196,0.0,1.0,34,0.00,,SKC,0.00,VWS V14.01,2013-03-29 19:04:00,
2013-03-29 12:09:00,69.9,40.3,30.03,SSE,159,0.0,4.0,34,0.00,,SKC,0.00,VWS V14.01,2013-03-29 19:09:00,
2013-03-29 12:15:00,70.1,39.7,30.02,NW,313,0.0,5.0,33,0.00,,SKC,0.00,VWS V14.01,2013-03-29 19:15:00,
2013-03-29 12:20:00,69.9,38.7,30.02,SSE,148,0.0,6.0,32,0.01,,SKC,0.01,VWS V14.01,2013-03-29 19:20:00,
2013-03-29 12:25:00,69.4,40.6,30.02,WNW,286,0.0,6.0,35,0.01,,SKC,0.01,VWS V14.01,2013-03-29 19:25:00,
2013-03-29 12:30:00,69.4,40.6,30.02,WNW,282,0.0,0.0,35,0.01,,SKC,0.01,VWS V14.01,2013-03-29 19:30:00,
2013-03-29 12:35:00,70.1,40.5,30.02,SW,215,0.0,4.0,34,0.01,,SKC,0.01,VWS V14.01,2013-03-29 19:35:00,
2013-03-29 12:40:00,70.6,37.7,30.02,SE,128,2.0,9.0,30,0.01,,SKC,0.01,VWS V14.01,2013-03-29 19:40:00,
2013-03-29 12:45:00,70.8,40.3,30.02,NW,315,0.0,9.0,33,0.01,,SKC,0.01,VWS V14.01,2013-03-29 19:45:00,
2013-03-29 12:50:00,69.9,40.3,30.02,West,279,0.0,9.0,34,0.01,,SKC,0.01,VWS V14.01,2013-03-29 19:50:00,
2013-03-29 12:55:00,70.4,41.5,30.02,SSW,202,0.0,9.0,35,0.01,,SKC,0.01,VWS V14.01,2013-03-29 19:55:00,
2013-03-29 13:00:00,70.1,41.2,30.01,West,272,0.0,3.0,35,0.01,,SKC,0.01,VWS V14.01,2013-03-29 20:00:00,
2013-03-29 13:06:00,70.4,40.7,30.01,WSW,252,0.0,3.0,34,0.01,,SKC,0.01,VWS V14.01,2013-03-29 20:06:00,
2013-03-29 13:11:00,71.3,40.7,30.01,South,190,0.0,4.0,33,0.01,,SKC,0.01,VWS V14.01,2013-03-29 20:11:00,
2013-03-29 13:16:00,71.8,40.4,30.01,South,184,0.0,4.0,32,0.01,,SKC,0.01,VWS V14.01,2013-03-29 20:16:00,
2013-03-29 13:21:00,71.6,39.4,30.01,SW,224,0.0,5.0,31,0.01,,SKC,0.01,VWS V14.01,2013-03-29 20:21:00,
2013-03-29 13:26:00,71.3,37.4,30.01,SW,223,0.0,5.0,29,0.01,,SKC,0.01,VWS V14.01,2013-03-29 20:26:00,
2013-03-29 13:30:00,71.5,36.7,30.01,West,263,0.0,5.0,28,0.01,,SKC,0.01,VWS V14.01,2013-03-29 20:30:00,
2013-03-29 13:32:00,72.0,38.0,30.01,WSW,247,0.0,0.0,29,0.00,,SKC,0.01,VWS V14.01,2013-03-29 20:32:00,
2013-03-29 13:37:00,72.3,37.4,30.01,WNW,286,0.0,4.0,28,0.00,,SKC,0.01,VWS V14.01,2013-03-29 20:37:00,
2013-03-29 13:42:00,72.7,39.5,30.01,SSE,160,0.0,4.0,30,0.00,,SKC,0.01,VWS V14.01,2013-03-29 20:42:00,
2013-03-29 13:47:00,72.1,37.2,30.00,SW,235,0.0,4.0,28,0.00,,SKC,0.01,VWS V14.01,2013-03-29 20:47:00,
2013-03-29 13:52:00,71.8,38.7,30.00,SSW,209,0.0,4.0,30,0.00,,SKC,0.01,VWS V14.01,2013-03-29 20:52:00,
2013-03-29 13:58:00,71.6,37.7,30.00,WSW,242,0.0,4.0,29,0.00,,SKC,0.01,VWS V14.01,2013-03-29 20:58:00,
2013-03-29 14:00:00,71.5,38.5,30.00,WSW,244,0.0,4.0,30,0.00,,SKC,0.01,VWS V14.01,2013-03-29 21:00:00,
2013-03-29 14:03:00,71.5,43.2,30.00,WSW,250,0.0,1.0,36,0.00,,SKC,0.01,VWS V14.01,2013-03-29 21:03:00,
2013-03-29 14:08:00,71.5,44.6,30.00,WNW,294,0.0,9.0,38,0.00,,SKC,0.01,VWS V14.01,2013-03-29 21:08:00,
2013-03-29 14:13:00,71.8,44.2,30.00,NNW,331,0.0,9.0,37,0.00,,SKC,0.01,VWS V14.01,2013-03-29 21:13:00,
2013-03-29 14:18:00,71.8,44.8,29.99,NW,313,2.0,9.0,38,0.00,,SKC,0.01,VWS V14.01,2013-03-29 21:18:00,
2013-03-29 14:23:00,72.0,45.7,29.99,SW,224,3.0,9.0,39,0.00,,SKC,0.01,VWS V14.01,2013-03-29 21:23:00,
2013-03-29 14:28:00,71.8,44.2,29.99,SW,223,0.0,9.0,37,0.00,,SKC,0.01,VWS V14.01,2013-03-29 21:28:00,
2013-03-29 14:30:00,72.0,45.0,29.99,WSW,250,0.0,9.0,38,0.00,,SKC,0.01,VWS V14.01,2013-03-29 21:30:00,
2013-03-29 14:33:00,72.3,45.3,29.99,WNW,291,1.0,1.0,38,0.00,,SKC,0.01,VWS V14.01,2013-03-29 21:33:00,
2013-03-29 14:38:00,72.1,45.1,29.99,West,277,1.0,4.0,38,0.00,,SKC,0.01,VWS V14.01,2013-03-29 21:38:00,
2013-03-29 14:43:00,71.6,42.5,29.99,West,265,0.0,5.0,35,0.00,,SKC,0.01,VWS V14.01,2013-03-29 21:43:00,
2013-03-29 14:48:00,71.3,45.1,29.99,NNW,331,0.0,5.0,39,0.00,,SKC,0.01,VWS V14.01,2013-03-29 21:48:00,
2013-03-29 14:53:00,70.8,42.5,29.99,WNW,301,8.0,8.0,36,0.00,,SKC,0.01,VWS V14.01,2013-03-29 21:53:00,
2013-03-29 14:58:00,69.8,43.1,29.99,NNW,344,6.0,13.0,38,0.00,,SKC,0.01,VWS V14.01,2013-03-29 21:58:00,
2013-03-29 15:00:00,69.8,43.8,29.99,NNW,339,3.0,13.0,39,0.00,,SKC,0.01,VWS V14.01,2013-03-29 22:00:00,
2013-03-29 15:04:00,69.6,41.5,29.99,North,360,4.0,7.0,36,0.00,,SKC,0.01,VWS V14.01,2013-03-29 22:04:00,
2013-03-29 15:09:00,69.6,41.5,29.99,NNW,348,0.0,10.0,36,0.00,,SKC,0.01,VWS V14.01,2013-03-29 22:09:00,
2013-03-29 15:14:00,69.8,42.4,29.99,NW,304,2.0,10.0,37,0.00,,SKC,0.01,VWS V14.01,2013-03-29 22:14:00,
2013-03-29 15:19:00,70.3,42.1,29.99,WSW,251,1.0,10.0,36,0.00,,SKC,0.01,VWS V14.01,2013-03-29 22:19:00,
2013-03-29 15:24:00,71.1,42.1,29.99,WNW,303,0.0,10.0,35,0.00,,SKC,0.01,VWS V14.01,2013-03-29 22:24:00,
2013-03-29 15:29:00,71.6,41.8,29.99,NNW,340,0.0,10.0,34,0.00,,SKC,0.01,VWS V14.01,2013-03-29 22:29:00,
2013-03-29 15:30:00,71.6,41.0,29.99,NNW,340,0.0,10.0,33,0.00,,SKC,0.01,VWS V14.01,2013-03-29 22:30:00,
2013-03-29 15:34:00,71.8,41.2,29.99,WNW,296,6.0,6.0,33,0.00,,SKC,0.01,VWS V14.01,2013-03-29 22:34:00,
2013-03-29 15:39:00,71.3,40.7,29.99,NW,304,0.0,9.0,33,0.00,,SKC,0.01,VWS V14.01,2013-03-29 22:39:00,
2013-03-29 15:45:00,71.6,42.5,29.98,West,261,0.0,9.0,35,0.00,,SKC,0.01,VWS V14.01,2013-03-29 22:45:00,
2013-03-29 15:50:00,72.0,41.3,29.98,NW,306,0.0,9.0,33,0.00,,SKC,0.01,VWS V14.01,2013-03-29 22:50:00,
2013-03-29 15:55:00,71.8,41.2,29.98,NNW,333,0.0,9.0,33,0.00,,SKC,0.01,VWS V14.01,2013-03-29 22:55:00,
2013-03-29 16:00:00,71.8,40.4,29.98,NW,316,2.0,2.0,32,0.00,,SKC,0.01,VWS V14.01,2013-03-29 23:00:00,
2013-03-29 16:05:00,71.6,40.2,29.98,NW,311,0.0,4.0,32,0.00,,SKC,0.01,VWS V14.01,2013-03-29 23:05:00,
2013-03-29 16:10:00,72.3,41.6,29.98,WNW,295,1.0,5.0,33,0.00,,SKC,0.01,VWS V14.01,2013-03-29 23:10:00,
2013-03-29 16:15:00,72.1,40.7,29.97,West,272,0.0,5.0,32,0.00,,SKC,0.01,VWS V14.01,2013-03-29 23:15:00,
2013-03-29 16:20:00,72.0,39.7,29.97,SSW,198,0.0,5.0,31,0.00,,SKC,0.01,VWS V14.01,2013-03-29 23:20:00,
2013-03-29 16:25:00,72.5,39.3,29.97,SW,223,0.0,5.0,30,0.00,,SKC,0.01,VWS V14.01,2013-03-29 23:25:00,
2013-03-29 16:30:00,72.7,42.0,29.97,WSW,238,0.0,5.0,33,0.00,,SKC,0.01,VWS V14.01,2013-03-29 23:30:00,
2013-03-29 16:31:00,72.7,42.0,29.97,WSW,237,0.0,1.0,33,0.00,,SKC,0.01,VWS V14.01,2013-03-29 23:31:00,
2013-03-29 16:37:00,72.5,40.2,29.97,NW,313,6.0,6.0,31,0.00,,SKC,0.01,VWS V14.01,2013-03-29 23:37:00,
2013-03-29 16:42:00,72.5,41.0,29.97,WSW,246,0.0,6.0,32,0.00,,SKC,0.01,VWS V14.01,2013-03-29 23:42:00,
2013-03-29 16:47:00,72.5,39.3,29.97,West,281,0.0,6.0,30,0.00,,SKC,0.01,VWS V14.01,2013-03-29 23:47:00,
2013-03-29 16:52:00,72.5,40.2,29.97,WNW,298,0.0,6.0,31,0.00,,SKC,0.01,VWS V14.01,2013-03-29 23:52:00,
2013-03-29 16:57:00,72.5,40.2,29.97,NNW,342,0.0,6.0,31,0.00,,SKC,0.01,VWS V14.01,2013-03-29 23:57:00,
2013-03-29 17:00:00,72.3,40.0,29.97,NNW,342,0.0,6.0,31,0.00,,SKC,0.01,VWS V14.01,2013-03-30 00:00:00,
2013-03-29 17:03:00,72.5,41.0,29.97,NW,313,0.0,4.0,32,0.00,,SKC,0.01,VWS V14.01,2013-03-30 00:03:00,
2013-03-29 17:08:00,72.0,40.6,29.97,WNW,298,0.0,5.0,32,0.00,,SKC,0.01,VWS V14.01,2013-03-30 00:08:00,
2013-03-29 17:13:00,71.6,40.2,29.97,WNW,298,0.0,5.0,32,0.00,,SKC,0.01,VWS V14.01,2013-03-30 00:13:00,
2013-03-29 17:18:00,71.3,41.5,29.96,WNW,297,0.0,5.0,34,0.00,,SKC,0.01,VWS V14.01,2013-03-30 00:18:00,
2013-03-29 17:23:00,71.1,40.6,29.96,WNW,297,0.0,5.0,33,0.00,,SKC,0.01,VWS V14.01,2013-03-30 00:23:00,
2013-03-29 17:28:00,71.1,41.3,29.96,WNW,297,0.0,5.0,34,0.00,,SKC,0.01,VWS V14.01,2013-03-30 00:28:00,
2013-03-29 17:30:00,70.9,40.4,29.97,WNW,297,0.0,5.0,33,0.00,,SKC,0.01,VWS V14.01,2013-03-30 00:30:00,
2013-03-29 17:33:00,70.4,40.0,29.97,WNW,303,5.0,5.0,33,0.00,,SKC,0.01,VWS V14.01,2013-03-30 00:33:00,
2013-03-29 17:39:00,69.6,40.0,29.97,WSW,257,0.0,6.0,34,0.00,,SKC,0.01,VWS V14.01,2013-03-30 00:39:00,
2013-03-29 17:44:00,69.3,41.2,29.97,WNW,300,0.0,6.0,36,0.00,,SKC,0.01,VWS V14.01,2013-03-30 00:44:00,
2013-03-29 17:49:00,69.1,39.6,29.97,NW,309,1.0,7.0,34,0.00,,SKC,0.01,VWS V14.01,2013-03-30 00:49:00,
2013-03-29 17:54:00,69.1,38.8,29.97,WNW,289,0.0,7.0,33,0.00,,SKC,0.01,VWS V14.01,2013-03-30 00:54:00,
2013-03-29 17:59:00,69.1,40.3,29.98,West,277,0.0,7.0,35,0.00,,SKC,0.01,VWS V14.01,2013-03-30 00:59:00,
2013-03-29 18:00:00,68.9,40.2,29.98,West,277,0.0,7.0,35,0.00,,SKC,0.01,VWS V14.01,2013-03-30 01:00:00,
2013-03-29 18:04:00,68.8,40.1,29.98,West,272,0.0,2.0,35,0.00,,SKC,0.01,VWS V14.01,2013-03-30 01:04:00,
2013-03-29 18:09:00,68.4,39.7,29.98,NNW,332,0.0,5.0,35,0.00,,SKC,0.01,VWS V14.01,2013-03-30 01:09:00,
2013-03-29 18:14:00,68.4,39.7,29.98,WNW,294,0.0,5.0,35,0.00,,SKC,0.01,VWS V14.01,2013-03-30 01:14:00,
2013-03-29 18:20:00,68.6,39.1,29.98,WNW,292,4.0,6.0,34,0.00,,SKC,0.01,VWS V14.01,2013-03-30 01:20:00,
2013-03-29 18:25:00,68.4,40.4,29.98,WNW,296,0.0,6.0,36,0.00,,SKC,0.01,VWS V14.01,2013-03-30 01:25:00,
2013-03-29 18:30:00,68.1,39.4,29.98,NW,309,0.0,2.0,35,0.00,,SKC,0.01,VWS V14.01,2013-03-30 01:30:00,
2013-03-29 18:35:00,67.6,39.7,29.98,WNW,284,0.0,4.0,36,0.00,,SKC,0.01,VWS V14.01,2013-03-30 01:35:00,
2013-03-29 18:40:00,67.1,40.7,29.98,WNW,302,1.0,7.0,38,0.00,,SKC,0.01,VWS V14.01,2013-03-30 01:40:00,
2013-03-29 18:45:00,66.6,40.2,29.98,WNW,298,0.0,7.0,38,0.00,,SKC,0.01,VWS V14.01,2013-03-30 01:45:00,
2013-03-29 18:50:00,66.3,40.6,29.98,WNW,301,0.0,7.0,39,0.00,,SKC,0.01,VWS V14.01,2013-03-30 01:50:00,
2013-03-29 18:55:00,65.8,40.2,29.98,NW,306,0.0,7.0,39,0.00,,SKC,0.01,VWS V14.01,2013-03-30 01:55:00,
2013-03-29 19:00:00,65.5,39.9,29.99,NW,314,1.0,1.0,39,0.00,,SKC,0.01,VWS V14.01,2013-03-30 02:00:00,
2013-03-29 19:05:00,65.0,40.1,29.99,NW,305,0.0,5.0,40,0.00,,SKC,0.01,VWS V14.01,2013-03-30 02:05:00,
2013-03-29 19:11:00,64.7,40.5,29.99,WNW,298,0.0,5.0,41,0.00,,SKC,0.01,VWS V14.01,2013-03-30 02:11:00,
2013-03-29 19:16:00,64.3,40.1,29.98,WNW,298,0.0,5.0,41,0.00,,SKC,0.01,VWS V14.01,2013-03-30 02:16:00,
2013-03-29 19:21:00,64.0,40.5,29.98,WNW,298,0.0,5.0,42,0.00,,SKC,0.01,VWS V14.01,2013-03-30 02:21:00,
2013-03-29 19:27:00,63.7,40.8,29.98,WNW,298,0.0,5.0,43,0.00,,SKC,0.01,VWS V14.01,2013-03-30 02:27:00,
2013-03-29 19:30:00,63.5,40.6,29.99,WNW,298,0.0,5.0,43,0.00,,SKC,0.01,VWS V14.01,2013-03-30 02:30:00,
2013-03-29 19:32:00,63.2,40.3,29.99,WNW,298,0.0,1.0,43,0.00,,SKC,0.01,VWS V14.01,2013-03-30 02:32:00,
2013-03-29 19:37:00,62.9,40.1,29.99,WNW,298,0.0,1.0,43,0.00,,SKC,0.01,VWS V14.01,2013-03-30 02:37:00,
2013-03-29 19:42:00,62.6,41.0,29.99,WNW,298,0.0,1.0,45,0.00,,SKC,0.01,VWS V14.01,2013-03-30 02:42:00,
2013-03-29 19:47:00,62.3,41.8,29.99,WNW,298,0.0,1.0,47,0.00,,SKC,0.01,VWS V14.01,2013-03-30 02:47:00,
2013-03-29 19:53:00,61.8,41.4,29.99,WNW,298,0.0,1.0,47,0.00,,SKC,0.01,VWS V14.01,2013-03-30 02:53:00,
2013-03-29 19:58:00,61.3,40.9,29.99,WNW,298,0.0,1.0,47,0.00,,SKC,0.01,VWS V14.01,2013-03-30 02:58:00,
2013-03-29 20:00:00,61.3,41.5,29.99,WNW,298,0.0,1.0,48,0.00,,SKC,0.01,VWS V14.01,2013-03-30 03:00:00,
2013-03-29 20:03:00,61.0,41.7,29.99,WNW,298,0.0,0.0,49,0.00,,SKC,0.01,VWS V14.01,2013-03-30 03:03:00,
2013-03-29 20:08:00,60.7,41.5,29.99,WNW,298,0.0,0.0,49,0.00,,SKC,0.01,VWS V14.01,2013-03-30 03:08:00,
2013-03-29 20:13:00,60.2,41.5,29.99,WNW,298,0.0,0.0,50,0.00,,SKC,0.01,VWS V14.01,2013-03-30 03:13:00,
2013-03-29 20:18:00,59.9,41.8,29.98,WNW,298,0.0,0.0,51,0.00,,SKC,0.01,VWS V14.01,2013-03-30 03:18:00,
2013-03-29 20:23:00,59.5,41.4,29.98,WNW,298,0.0,0.0,51,0.00,,SKC,0.01,VWS V14.01,2013-03-30 03:23:00,
2013-03-29 20:29:00,59.0,41.9,29.99,WNW,298,0.0,0.0,53,0.00,,SKC,0.01,VWS V14.01,2013-03-30 03:29:00,
2013-03-29 20:30:00,59.0,41.9,29.99,WNW,298,0.0,0.0,53,0.00,,SKC,0.01,VWS V14.01,2013-03-30 03:30:00,
2013-03-29 20:34:00,58.7,41.6,29.99,WNW,298,0.0,0.0,53,0.00,,SKC,0.01,VWS V14.01,2013-03-30 03:34:00,
2013-03-29 20:39:00,58.1,42.5,29.99,WNW,298,0.0,0.0,56,0.00,,SKC,0.01,VWS V14.01,2013-03-30 03:39:00,
2013-03-29 20:45:00,57.5,42.4,30.00,WNW,298,0.0,0.0,57,0.00,,SKC,0.01,VWS V14.01,2013-03-30 03:45:00,
2013-03-29 20:50:00,57.0,42.8,30.00,WNW,298,0.0,0.0,59,0.00,,SKC,0.01,VWS V14.01,2013-03-30 03:50:00,
2013-03-29 20:55:00,56.6,42.5,30.00,WNW,298,0.0,0.0,59,0.00,,SKC,0.01,VWS V14.01,2013-03-30 03:55:00,
2013-03-29 21:00:00,56.3,42.2,30.00,WNW,298,0.0,0.0,59,0.00,,SKC,0.01,VWS V14.01,2013-03-30 04:00:00,
2013-03-29 21:01:00,56.3,42.2,30.00,WNW,298,0.0,0.0,59,0.00,,SKC,0.01,VWS V14.01,2013-03-30 04:01:00,
2013-03-29 21:02:00,56.3,42.2,30.00,WNW,298,0.0,0.0,59,0.00,,SKC,0.01,VWS V14.01,2013-03-30 04:02:00,
2013-03-29 21:06:00,56.2,42.1,30.00,WNW,298,0.0,0.0,59,0.00,,SKC,0.01,VWS V14.01,2013-03-30 04:06:00,
2013-03-29 21:11:00,56.0,42.3,30.00,WNW,298,0.0,0.0,60,0.00,,SKC,0.01,VWS V14.01,2013-03-30 04:11:00,
2013-03-29 21:16:00,55.9,42.7,29.99,WNW,298,0.0,0.0,61,0.00,,SKC,0.01,VWS V14.01,2013-03-30 04:16:00,
2013-03-29 21:21:00,55.7,42.0,29.99,WNW,298,0.0,0.0,60,0.00,,SKC,0.01,VWS V14.01,2013-03-30 04:21:00,
2013-03-29 21:27:00,55.6,42.4,29.99,WNW,298,0.0,0.0,61,0.00,,SKC,0.01,VWS V14.01,2013-03-30 04:27:00,
2013-03-29 21:30:00,55.6,42.4,29.99,WNW,298,0.0,0.0,61,0.00,,SKC,0.01,VWS V14.01,2013-03-30 04:30:00,
2013-03-29 21:32:00,55.4,42.6,29.99,WNW,298,0.0,0.0,62,0.00,,SKC,0.01,VWS V14.01,2013-03-30 04:32:00,
2013-03-29 21:37:00,55.3,42.5,29.99,WNW,298,0.0,0.0,62,0.00,,SKC,0.01,VWS V14.01,2013-03-30 04:37:00,
2013-03-29 21:42:00,55.0,42.2,29.99,WNW,298,0.0,0.0,62,0.00,,SKC,0.01,VWS V14.01,2013-03-30 04:42:00,
2013-03-29 21:47:00,54.8,42.5,30.00,WNW,298,0.0,0.0,63,0.00,,SKC,0.01,VWS V14.01,2013-03-30 04:47:00,
2013-03-29 21:52:00,54.7,42.4,30.00,WNW,298,0.0,0.0,63,0.00,,SKC,0.01,VWS V14.01,2013-03-30 04:52:00,
2013-03-29 21:57:00,54.5,42.6,30.00,WNW,298,0.0,0.0,64,0.00,,SKC,0.01,VWS V14.01,2013-03-30 04:57:00,
2013-03-29 22:00:00,54.5,42.2,30.00,WNW,298,0.0,0.0,63,0.00,,SKC,0.01,VWS V14.01,2013-03-30 05:00:00,
2013-03-29 22:02:00,54.5,42.2,30.00,WNW,298,0.0,0.0,63,0.00,,SKC,0.01,VWS V14.01,2013-03-30 05:02:00,
2013-03-29 22:07:00,54.5,42.6,30.00,WNW,298,0.0,0.0,64,0.00,,SKC,0.01,VWS V14.01,2013-03-30 05:07:00,
2013-03-29 22:12:00,54.5,42.6,30.00,WNW,298,0.0,0.0,64,0.00,,SKC,0.01,VWS V14.01,2013-03-30 05:12:00,
2013-03-29 22:18:00,54.5,42.2,29.99,WNW,298,0.0,0.0,63,0.00,,SKC,0.01,VWS V14.01,2013-03-30 05:18:00,
2013-03-29 22:23:00,54.5,42.2,29.99,WNW,298,0.0,0.0,63,0.00,,SKC,0.01,VWS V14.01,2013-03-30 05:23:00,
2013-03-29 22:28:00,54.5,42.2,29.99,WNW,298,0.0,0.0,63,0.00,,SKC,0.01,VWS V14.01,2013-03-30 05:28:00,
2013-03-29 22:30:00,54.7,42.4,29.99,WNW,298,0.0,0.0,63,0.00,,SKC,0.01,VWS V14.01,2013-03-30 05:30:00,
2013-03-29 22:33:00,54.8,42.9,29.99,WNW,298,0.0,0.0,64,0.00,,SKC,0.01,VWS V14.01,2013-03-30 05:33:00,
2013-03-29 22:38:00,54.8,42.9,29.99,WNW,298,0.0,0.0,64,0.00,,SKC,0.01,VWS V14.01,2013-03-30 05:38:00,
2013-03-29 22:43:00,54.8,42.5,29.99,WNW,298,0.0,0.0,63,0.00,,SKC,0.01,VWS V14.01,2013-03-30 05:43:00,
2013-03-29 22:48:00,55.0,42.7,29.99,WNW,298,0.0,0.0,63,0.00,,SKC,0.01,VWS V14.01,2013-03-30 05:48:00,
2013-03-29 22:53:00,55.0,42.7,29.99,WNW,298,0.0,0.0,63,0.00,,SKC,0.01,VWS V14.01,2013-03-30 05:53:00,
2013-03-29 22:58:00,55.0,43.1,29.99,WNW,298,0.0,0.0,64,0.00,,SKC,0.01,VWS V14.01,2013-03-30 05:58:00,
2013-03-29 23:00:00,55.0,43.1,29.99,WNW,298,0.0,0.0,64,0.00,,SKC,0.01,VWS V14.01,2013-03-30 06:00:00,
2013-03-29 23:03:00,54.8,42.9,29.99,WNW,298,0.0,0.0,64,0.00,,SKC,0.01,VWS V14.01,2013-03-30 06:03:00,
2013-03-29 23:09:00,54.8,42.9,29.99,WNW,298,0.0,0.0,64,0.00,,SKC,0.01,VWS V14.01,2013-03-30 06:09:00,
2013-03-29 23:14:00,54.7,43.2,29.98,WNW,298,0.0,0.0,65,0.00,,SKC,0.01,VWS V14.01,2013-03-30 06:14:00,
2013-03-29 23:19:00,54.5,43.0,29.98,WNW,298,0.0,0.0,65,0.00,,SKC,0.01,VWS V14.01,2013-03-30 06:19:00,
2013-03-29 23:24:00,54.4,42.9,29.98,WNW,298,0.0,0.0,65,0.00,,SKC,0.01,VWS V14.01,2013-03-30 06:24:00,
2013-03-29 23:29:00,54.4,43.3,29.99,WNW,298,0.0,0.0,66,0.00,,SKC,0.01,VWS V14.01,2013-03-30 06:29:00,
2013-03-29 23:30:00,54.4,43.3,29.99,WNW,298,0.0,0.0,66,0.00,,SKC,0.01,VWS V14.01,2013-03-30 06:30:00,
2013-03-29 23:34:00,54.2,42.7,29.99,WNW,298,0.0,0.0,65,0.00,,SKC,0.01,VWS V14.01,2013-03-30 06:34:00,
2013-03-29 23:39:00,54.4,42.9,29.99,WNW,298,0.0,0.0,65,0.00,,SKC,0.01,VWS V14.01,2013-03-30 06:39:00,
2013-03-29 23:44:00,54.2,43.1,29.98,WNW,298,0.0,0.0,66,0.00,,SKC,0.01,VWS V14.01,2013-03-30 06:44:00,
2013-03-29 23:49:00,54.1,43.0,29.98,WNW,298,0.0,0.0,66,0.00,,SKC,0.01,VWS V14.01,2013-03-30 06:49:00,
2013-03-29 23:54:00,54.1,43.0,29.98,WNW,298,0.0,0.0,66,0.00,,SKC,0.01,VWS V14.01,2013-03-30 06:54:00,
2013-03-29 23:59:00,54.1,43.0,29.98,WNW,298,0.0,0.0,66,0.00,,SKC,0.01,VWS V14.01,2013-03-30 06:59:00,